Hourly Data Report for September 28, 2017

All times are specified in Local Standard Time (LST). Add 1 hour to adjust for Daylight Saving Time where and when it is observed.

NAPPAN AUTO
NOVA SCOTIA

45°45'34.400" N
64°14'29.200" W
19.80 m
8203702
71311
XNP

Download Data

Hourly Data (September 2017)
Hourly Data Report for September 28, 2017
Temp Definition
°C
Dew Point Temp Definition
°C
Rel Hum Definition
%
Wind Dir Definition
10's deg

Wind Spd Definition
km/h
Visibility Definition
km
Stn Press Definition
kPa
Hmdx Definition


Wind Chill Definition


Weather Definition


TIME
00:00 21.4 19.8 91 22 22   100.32 29   LegendNANA
01:00 20.2 19.2 94 24 29   100.36 27   LegendNANA
02:00 19.8 19.0 95 22 31   100.26     LegendNANA
03:00 19.7 18.8 95 21 23   100.17     LegendNANA
04:00 19.3 18.5 95 22 23   100.10     LegendNANA
05:00 19.2 18.5 96 21 23   100.05     LegendNANA
06:00 19.3 18.5 95 20 18   99.93     LegendNANA
07:00 18.0 17.3 96 33 13   100.08     LegendNANA
08:00 18.5 17.7 95 12 3   100.03     LegendNANA
09:00 18.6 17.7 94 19 9   100.05     LegendNANA
10:00 19.0 17.9 93 20 5   100.05     LegendNANA
11:00 20.4 17.1 81 26 10   100.06 26   LegendNANA
12:00 20.1 17.0 83 27 13   100.02 25   LegendNANA
13:00 20.6 13.3 63 30 19   100.00     LegendNANA
14:00 20.8 13.0 61 33 13   99.99     LegendNANA
15:00 20.4 11.2 55 32 21   100.04     LegendNANA
16:00 19.3 11.4 60 30 16   100.06     LegendNANA
17:00
18:00
19:00
20:00
21:00 11.8 5.4 65 32 15   100.31     LegendNANA
22:00 10.3 5.4 72 32 9   100.32     LegendNANA
23:00 9.6 5.5 76 31 8   100.35     LegendNANA

Notes on Data Quality.

Legend

  • E = Estimated
  • M = Missing
  • NA = Not Available
  • ‡ = Partner data that is not subject to review by the National Climate Archives
Date modified: